Home   Weather   Amersfoort   Past weeks

Flag for Netherlands Past Weather in Amersfoort, Netherlands — Yesterday and Last 2 Weeks

Now
28 °F

Passing clouds.


Feels Like: 28 °F
Forecast: 21 / 34 °F
Wind: 1 mph from North

Location: Deelen

Current Time: Jan 19, 2017 at 6:29:16 pm

Latest Report: Jan 19, 2017 at 5:55 pm


Visibility: N/A

Pressure: 30.63 "Hg

Humidity: 86%

Dew Point: 25 °F

Location of AmersfoortLocation

Past Weather in Amersfoort — Graph

°F

Amersfoort Temperature Yesterday

Maximum temperature yesterday: 28 °F (at 1:55 pm)
Minimum temperature yesterday: 23 °F (at 12:25 am)
Average temperature yesterday: 25 °F

High & Low Weather Summary for the Past Weeks

 TemperatureHumidityPressure
High48 °F (Jan 11, 12:55 pm)100% (Jan 4, 11:25 pm)30.72 "Hg (Jan 4, 11:25 pm)
Low18 °F (Jan 6, 3:25 am)52% (Jan 19, 3:25 pm)29.00 "Hg (Jan 13, 12:55 am)
Average32 °F91%30.18 "Hg
* Reported Jan 4 5:25 pm — Jan 19 5:25 pm, Amersfoort, Weather by CustomWeather, © 2017

Note: Actual official high and low records may vary slightly from our data, if they occured in-between our weather recording intervals... More about our weather records

Advertising

Amersfoort Weather History for the Previous 24 Hours

Scroll right to see more
 ConditionsComfort  
Time TempWeatherWind HumidityBarometerVisibility
5:25 pm
Thu, Jan 19
28 °FPassing clouds.2 mph86%30.63 "HgN/A
4:55 pm32 °FPassing clouds.2 mph75%30.63 "HgN/A
4:25 pm36 °FPassing clouds.1 mph65%30.63 "HgN/A
3:55 pm37 °FPassing clouds.3 mph56%30.63 "HgN/A
3:25 pm37 °FChilly.5 mph52%30.63 "HgN/A
2:55 pm37 °FChilly.5 mph60%30.63 "HgN/A
2:25 pm37 °FChilly.1 mph65%30.63 "HgN/A
1:55 pm37 °FPassing clouds.1 mph60%30.63 "HgN/A
1:25 pm36 °FPassing clouds.2 mph70%30.63 "HgN/A
12:55 pm36 °FPassing clouds.3 mph70%30.63 "HgN/A
12:25 pm34 °FPassing clouds.3 mph70%30.66 "HgN/A
11:55 am32 °FHaze.3 mph80%30.66 "Hg6 mi
11:25 am32 °FHaze.2 mph75%30.66 "Hg5 mi
10:55 am30 °FIce fog.5 mph80%30.66 "Hg6 mi
10:25 am27 °FIce fog.1 mph93%30.66 "Hg3 mi
9:55 am25 °FIce fog.1 mph93%30.66 "Hg2 mi
9:25 am23 °FIce fog.1 mph93%30.66 "Hg2 mi
8:55 am23 °FIce fog.2 mph100%30.66 "Hg1 mi
8:25 am23 °FIce fog.2 mph93%30.66 "Hg1 mi
7:55 am25 °FIce fog.2 mph93%30.63 "Hg2 mi
7:25 am27 °FIce fog.2 mph93%30.63 "Hg2 mi
6:55 am27 °FIce fog.2 mph93%30.63 "Hg3 mi
6:25 am27 °FIce fog.2 mph86%30.63 "Hg2 mi
5:55 am27 °FIce fog.2 mph86%30.63 "Hg3 mi
5:25 am27 °FIce fog.3 mph86%30.66 "Hg3 mi
4:55 am27 °FIce fog.3 mph93%30.66 "Hg3 mi
4:25 am27 °FIce fog.3 mph93%30.66 "Hg3 mi
3:55 am27 °FIce fog.2 mph93%30.66 "Hg3 mi
3:25 am25 °FIce fog.1 mph93%30.66 "Hg3 mi
2:55 am25 °FIce fog.2 mph93%30.66 "Hg3 mi
2:25 am23 °FIce fog.2 mph93%30.66 "Hg2 mi
1:55 am23 °FIce fog.1 mph93%30.66 "Hg1 mi
1:25 am21 °FIce fog.1 mph93%30.66 "Hg1 mi
12:55 am23 °FIce fog.1 mph93%30.66 "Hg1 mi
12:25 am23 °FIce fog.2 mph93%30.66 "Hg1 mi
11:55 pm
Wed, Jan 18
25 °FIce fog.2 mph93%30.66 "Hg1 mi
11:25 pm23 °FIce fog.3 mph100%30.66 "Hg1 mi
10:55 pm25 °FIce fog.3 mph93%30.66 "Hg1 mi
10:25 pm25 °FIce fog.2 mph100%30.66 "Hg1 mi
9:55 pm27 °FIce fog.2 mph100%30.66 "Hg2 mi
9:25 pm28 °FIce fog.2 mph93%30.66 "Hg2 mi
8:55 pm27 °FIce fog.3 mph100%30.66 "Hg2 mi
8:25 pm28 °FIce fog.3 mph86%30.66 "Hg2 mi
7:55 pm28 °FIce fog.2 mph93%30.66 "Hg2 mi
7:25 pm27 °FIce fog.3 mph100%30.66 "Hg2 mi
6:55 pm27 °FIce fog.2 mph100%30.69 "Hg2 mi
6:25 pm27 °FIce fog.2 mph100%30.69 "Hg2 mi
Weather by CustomWeather, © 2017

See weather overviewHow to use our weather pages